Saipan, MP

12:32 AM ChST on August 25, 2016 (GMT +1000)
Saipan International

Weather History for PGSN - January, 2014

Change the Weather History Date:

Tuesday, January 28, 2014

  Actual Average Record
Temperature  
Mean Temperature 78 °F -  
Max Temperature 82 °F 82 °F 86 °F (1999)
Min Temperature 75 °F 74 °F 32 °F (1999)
Cooling Degree Days 14    
Growing Degree Days 28 (Base 50)    
Moisture  
Dew Point 75 °F    
Average Humidity 89    
Maximum Humidity 97    
Minimum Humidity 79    
Precipitation  
Precipitation 0.05 in - - ()
Sea Level Pressure  
Sea Level Pressure 29.78 in    
Wind  
Wind Speed 15 mph (NNE)    
Max Wind Speed 22 mph    
Max Gust Speed 30 mph    
Visibility 10 miles    
Events Rain    
Averages and records for this station are not official NWS values.
T = Trace of Precipitation, MM = Missing Value Source: NWS Daily Summary

Daily Weather History Graph

Daily Weather History Graph

Search for Another Location

Airport or City:

Trip Planner

Search our weather history database for the weather conditions in past years. The results will help you decide how hot, cold, wet, or windy it might be!

Date:

Astronomy

Jan. 28, 2014 Rise Set
Actual Time 6:46 AM ChST 6:13 PM ChST
Civil Twilight 6:24 AM ChST 6:35 PM ChST
Nautical Twilight 5:58 AM ChST 7:01 PM ChST
Astronomical Twilight 5:32 AM ChST 7:27 PM ChST
Moon 3:43 AM ChST (1/28) 3:26 PM ChST (1/28)
Length of Visible Light 12h 11m
Length of Day
11h 26m
Waning Crescent, 12% of the Moon is Illuminated
Jan 28
Waning Crescent
Jan 31
New
Feb 7
First Quarter
Feb 15
Full
Feb 23
Last Quarter

Hourly Weather History & Observations

Time (ChST) Temp. Heat Index Dew Point Humidity Pressure Visibility Wind Dir Wind Speed Gust Speed Precip Events Conditions
12:01 AM 75.2 °F - 73.4 °F 94% 29.73 in 10.0 mi NNE 12.7 mph - N/A   Mostly Cloudy
12:54 AM 75.9 °F - 73.9 °F 94% 29.78 in 10.0 mi NNE 16.1 mph - N/A   Mostly Cloudy
1:54 AM 77.0 °F - 75.0 °F 94% 29.78 in 10.0 mi NNE 10.4 mph 19.6 mph N/A   Mostly Cloudy
2:01 AM 77.0 °F - 75.2 °F 94% 29.71 in 10.0 mi NNE 12.7 mph - N/A   Overcast
2:51 AM 77.0 °F - 73.4 °F 89% 29.70 in 10.0 mi NNE 13.8 mph 21.9 mph N/A   Overcast
2:54 AM 77.0 °F - 73.9 °F 90% 29.76 in 10.0 mi NNE 13.8 mph 21.9 mph N/A   Overcast
3:54 AM 75.9 °F - 73.9 °F 94% 29.76 in 7.0 mi NNE 10.4 mph - 0.01 in Rain Light Rain
4:11 AM 77.0 °F - 73.4 °F 89% 29.70 in 10.0 mi NNE 12.7 mph - 0.00 in   Overcast
4:24 AM 77.0 °F - 73.4 °F 89% 29.70 in 10.0 mi NNE 15.0 mph 20.7 mph 0.00 in   Overcast
4:43 AM 77.0 °F - 75.2 °F 94% 29.70 in 10.0 mi NNE 16.1 mph 23.0 mph 0.00 in   Overcast
4:52 AM 77.0 °F - 75.2 °F 94% 29.70 in 10.0 mi NNE 15.0 mph - 0.00 in   Overcast
4:54 AM 77.0 °F - 75.0 °F 94% 29.77 in 10.0 mi NNE 13.8 mph - 0.00 in   Overcast
5:54 AM 77.0 °F - 73.9 °F 90% 29.78 in 10.0 mi NNE 11.5 mph 24.2 mph N/A   Mostly Cloudy
6:02 AM 77.0 °F - 75.2 °F 94% 29.71 in 10.0 mi NNE 12.7 mph - N/A   Mostly Cloudy
6:54 AM 75.9 °F - 75.0 °F 97% 29.80 in 8.0 mi NNE 13.8 mph - 0.00 in   Overcast
7:54 AM 77.0 °F - 75.0 °F 94% 29.82 in 7.0 mi NNE 15.0 mph 23.0 mph N/A   Overcast
8:54 AM 79.0 °F - 75.9 °F 90% 29.84 in 10.0 mi NNE 15.0 mph 23.0 mph N/A   Mostly Cloudy
9:54 AM 81.0 °F 87.9 °F 77.0 °F 88% 29.85 in 10.0 mi NNE 16.1 mph 24.2 mph N/A   Mostly Cloudy
10:24 AM 80.6 °F 86.2 °F 75.2 °F 84% 29.78 in 10.0 mi NNE 19.6 mph 24.2 mph N/A   Mostly Cloudy
10:54 AM 80.1 °F 85.8 °F 77.0 °F 90% 29.84 in 10.0 mi NNE 16.1 mph 24.2 mph 0.00 in   Overcast
11:54 AM 82.0 °F 90.2 °F 77.0 °F 85% 29.83 in 10.0 mi NE 15.0 mph 25.3 mph N/A   Mostly Cloudy
12:09 PM 80.6 °F 86.2 °F 75.2 °F 84% 29.76 in 10.0 mi NNE 20.7 mph 26.5 mph N/A   Overcast
12:32 PM 82.4 °F 89.5 °F 75.2 °F 79% 29.75 in 10.0 mi NNE 21.9 mph 28.8 mph N/A   Overcast
12:42 PM 82.4 °F 89.5 °F 75.2 °F 79% 29.75 in 10.0 mi NE 18.4 mph 29.9 mph N/A   Overcast
12:54 PM 81.0 °F 87.3 °F 75.9 °F 85% 29.81 in 10.0 mi NNE 18.4 mph 25.3 mph N/A   Overcast
1:54 PM 80.1 °F 85.8 °F 77.0 °F 90% 29.79 in 9.0 mi NNE 19.6 mph 26.5 mph 0.01 in   Overcast
2:54 PM 80.1 °F 85.1 °F 75.0 °F 85% 29.78 in 10.0 mi NE 18.4 mph 25.3 mph 0.00 in   Overcast
3:54 PM 79.0 °F - 75.9 °F 90% 29.78 in 10.0 mi NE 16.1 mph 25.3 mph 0.01 in   Overcast
4:54 PM 79.0 °F - 75.9 °F 90% 29.79 in 10.0 mi NNE 18.4 mph 25.3 mph N/A   Overcast
5:54 PM 79.0 °F - 75.9 °F 90% 29.81 in 8.0 mi NNE 13.8 mph 23.0 mph N/A   Overcast
6:13 PM 78.8 °F - 75.2 °F 89% 29.75 in 7.0 mi NNE 15.0 mph - 0.00 in Rain Light Rain
6:25 PM 78.8 °F - 75.2 °F 89% 29.76 in 10.0 mi NNE 16.1 mph - 0.00 in   Overcast
6:38 PM 78.8 °F - 75.2 °F 89% 29.76 in 10.0 mi NNE 13.8 mph - 0.00 in   Overcast
6:54 PM 79.0 °F - 75.9 °F 90% 29.83 in 10.0 mi NNE 15.0 mph 23.0 mph 0.00 in   Overcast
7:54 PM 79.0 °F - 75.0 °F 88% 29.83 in 10.0 mi NE 19.6 mph 25.3 mph N/A   Overcast
8:54 PM 79.0 °F - 75.0 °F 88% 29.85 in 10.0 mi NE 17.3 mph 23.0 mph N/A   Overcast
9:01 PM 78.8 °F - 75.2 °F 89% 29.79 in 10.0 mi NE 17.3 mph 25.3 mph N/A   Mostly Cloudy
9:54 PM 79.0 °F - 75.9 °F 90% 29.85 in 9.0 mi NE 19.6 mph 25.3 mph 0.00 in Rain Light Rain
10:02 PM 78.8 °F - 75.2 °F 89% 29.78 in 10.0 mi NE 15.0 mph 25.3 mph 0.00 in Rain Light Rain
10:54 PM 80.1 °F 85.1 °F 75.0 °F 85% 29.84 in 10.0 mi NE 18.4 mph 27.6 mph 0.00 in   Mostly Cloudy
11:01 PM 80.6 °F 86.2 °F 75.2 °F 84% 29.78 in 10.0 mi NE 17.3 mph 25.3 mph N/A   Mostly Cloudy
11:54 PM 78.1 °F - 75.9 °F 93% 29.83 in 6.0 mi NE 18.4 mph 27.6 mph 0.02 in Rain Light Rain